MWI043 FWCL-FWKI

Flight info

Callsign MWI043
Flight time 0h 29m
Altitude 22000
Route VCL DCT TETEM VCL
Aircraft B737/M-SABDE2E3FGHIRWXY/LB2

Departure

Time 2026-05-08 07:07
Airport Chileka International Airport (FWCL)

Arrival

Time 2026-05-08 07:36
Airport Kamuzu International Airport (FWKI)
Time Latitude Longitude Altitude Speed Heading
2026-05-08 06:48 -15.68099 34.97178 2467 ft 0 kts 275°
2026-05-08 07:02 -15.68096 34.97168 2467 ft 2 kts 290°
2026-05-08 07:02 -15.68083 34.97157 2469 ft 3 kts 323°
2026-05-08 07:02 -15.68059 34.97153 2467 ft 5 kts 357°
2026-05-08 07:02 -15.68005 34.97149 2467 ft 10 kts 351°
2026-05-08 07:03 -15.67931 34.97135 2467 ft 11 kts 349°
2026-05-08 07:03 -15.67877 34.97146 2467 ft 5 kts 82°
2026-05-08 07:03 -15.67882 34.97191 2467 ft 10 kts 96°
2026-05-08 07:03 -15.67891 34.97277 2466 ft 14 kts 96°
2026-05-08 07:04 -15.67903 34.97390 2469 ft 18 kts 97°
2026-05-08 07:04 -15.67917 34.97520 2465 ft 18 kts 96°
2026-05-08 07:04 -15.67930 34.97648 2465 ft 17 kts 96°
2026-05-08 07:04 -15.67944 34.97771 2465 ft 17 kts 96°
2026-05-08 07:05 -15.67956 34.97889 2466 ft 16 kts 96°
2026-05-08 07:05 -15.67940 34.97980 2468 ft 10 kts 73°
2026-05-08 07:05 -15.67950 34.97993 2468 ft 0 kts 185°
2026-05-08 07:05 -15.67957 34.97978 2469 ft 8 kts 261°
2026-05-08 07:06 -15.67951 34.97851 2469 ft 43 kts 274°
2026-05-08 07:06 -15.67889 34.97270 2467 ft 117 kts 276°
2026-05-08 07:06 -15.67773 34.96210 2492 ft 175 kts 276°
2026-05-08 07:06 -15.67655 34.94882 3022 ft 189 kts 275°
2026-05-08 07:07 -15.67534 34.93583 3678 ft 198 kts 281°
2026-05-08 07:07 -15.67329 34.92152 4477 ft 203 kts 283°
2026-05-08 07:07 -15.66701 34.90814 4965 ft 219 kts 320°
2026-05-08 07:07 -15.65337 34.89979 5491 ft 234 kts 336°
2026-05-08 07:08 -15.63867 34.89122 6002 ft 260 kts 333°
2026-05-08 07:08 -15.62237 34.88153 6671 ft 277 kts 332°
2026-05-08 07:08 -15.60546 34.87131 7579 ft 284 kts 331°
2026-05-08 07:08 -15.58826 34.86092 8476 ft 290 kts 330°
2026-05-08 07:09 -15.57061 34.85029 9365 ft 296 kts 329°
2026-05-08 07:09 -15.55265 34.83950 10217 ft 302 kts 329°
2026-05-08 07:09 -15.53404 34.82836 10765 ft 319 kts 329°
2026-05-08 07:09 -15.51395 34.81635 11061 ft 341 kts 329°
2026-05-08 07:10 -15.49401 34.80446 12288 ft 327 kts 330°
2026-05-08 07:10 -15.47476 34.79301 13694 ft 311 kts 330°
2026-05-08 07:10 -15.45610 34.78191 14728 ft 309 kts 330°
2026-05-08 07:10 -15.43725 34.77070 15502 ft 315 kts 330°
2026-05-08 07:11 -15.41799 34.75925 16237 ft 322 kts 330°
2026-05-08 07:11 -15.39831 34.74756 17027 ft 327 kts 330°
2026-05-08 07:11 -15.37848 34.73578 17847 ft 331 kts 330°
2026-05-08 07:11 -15.35831 34.72384 18636 ft 335 kts 330°
2026-05-08 07:12 -15.33800 34.71181 19372 ft 337 kts 329°
2026-05-08 07:12 -15.31823 34.69871 20177 ft 337 kts 325°
2026-05-08 07:12 -15.29880 34.68469 20861 ft 342 kts 324°
2026-05-08 07:12 -15.27950 34.67040 21635 ft 344 kts 323°
2026-05-08 07:13 -15.25994 34.65586 22293 ft 349 kts 323°
2026-05-08 07:13 -15.24002 34.64112 22995 ft 352 kts 323°
2026-05-08 07:13 -15.21996 34.62635 23733 ft 355 kts 323°
2026-05-08 07:13 -15.19970 34.61150 24051 ft 358 kts 323°
2026-05-08 07:14 -15.17924 34.59656 24121 ft 365 kts 323°
2026-05-08 07:14 -15.15801 34.58108 24142 ft 382 kts 323°
2026-05-08 07:14 -15.13584 34.56493 24145 ft 396 kts 323°
2026-05-08 07:14 -15.11334 34.54856 24144 ft 403 kts 323°
2026-05-08 07:15 -15.09000 34.53161 24138 ft 404 kts 324°
2026-05-08 07:15 -15.06704 34.51497 24128 ft 402 kts 324°
2026-05-08 07:15 -15.04441 34.49856 24135 ft 401 kts 324°
2026-05-08 07:15 -15.02161 34.48203 24137 ft 401 kts 324°
2026-05-08 07:16 -14.99875 34.46547 24134 ft 400 kts 324°
2026-05-08 07:16 -14.97594 34.44894 24137 ft 401 kts 324°
2026-05-08 07:16 -14.95314 34.43242 24136 ft 402 kts 324°
2026-05-08 07:16 -14.93015 34.41576 24137 ft 402 kts 324°
2026-05-08 07:17 -14.90719 34.39913 24136 ft 403 kts 324°
2026-05-08 07:17 -14.88419 34.38247 24128 ft 404 kts 324°
2026-05-08 07:17 -14.86105 34.36572 24133 ft 405 kts 324°
2026-05-08 07:17 -14.83801 34.34905 24128 ft 405 kts 324°
2026-05-08 07:18 -14.81492 34.33234 24127 ft 405 kts 324°
2026-05-08 07:18 -14.79177 34.31560 24126 ft 405 kts 324°
2026-05-08 07:18 -14.76869 34.29890 24126 ft 405 kts 324°
2026-05-08 07:18 -14.74554 34.28217 24127 ft 405 kts 324°
2026-05-08 07:19 -14.72276 34.26571 24125 ft 405 kts 324°
2026-05-08 07:19 -14.69965 34.24901 24123 ft 405 kts 324°
2026-05-08 07:19 -14.67655 34.23232 24121 ft 405 kts 324°
2026-05-08 07:19 -14.65348 34.21567 24127 ft 405 kts 324°
2026-05-08 07:20 -14.63038 34.19899 24127 ft 405 kts 324°
2026-05-08 07:20 -14.60729 34.18232 24125 ft 405 kts 324°
2026-05-08 07:20 -14.58422 34.16567 24123 ft 405 kts 324°
2026-05-08 07:20 -14.56103 34.14894 24122 ft 405 kts 324°
2026-05-08 07:21 -14.53798 34.13231 24129 ft 405 kts 324°
2026-05-08 07:21 -14.51473 34.11556 24129 ft 405 kts 324°
2026-05-08 07:21 -14.49230 34.09940 24111 ft 392 kts 324°
2026-05-08 07:21 -14.47020 34.08348 24110 ft 381 kts 324°
2026-05-08 07:22 -14.44847 34.06783 24119 ft 379 kts 324°
2026-05-08 07:22 -14.42670 34.05215 24128 ft 381 kts 324°
2026-05-08 07:22 -14.40519 34.03665 23813 ft 384 kts 324°
2026-05-08 07:22 -14.38330 34.02089 23339 ft 383 kts 324°
2026-05-08 07:23 -14.36150 34.00519 22818 ft 380 kts 324°
2026-05-08 07:23 -14.33990 33.98964 22302 ft 376 kts 324°
2026-05-08 07:23 -14.31847 33.97422 21795 ft 373 kts 324°
2026-05-08 07:23 -14.29731 33.95901 21284 ft 370 kts 324°
2026-05-08 07:24 -14.27656 33.94408 20794 ft 367 kts 325°
2026-05-08 07:24 -14.25570 33.92909 20292 ft 364 kts 325°
2026-05-08 07:24 -14.23488 33.91412 19781 ft 363 kts 325°
2026-05-08 07:24 -14.21415 33.89922 19263 ft 362 kts 325°
2026-05-08 07:25 -14.19357 33.88443 18751 ft 361 kts 325°
2026-05-08 07:25 -14.17291 33.86959 18212 ft 360 kts 325°
2026-05-08 07:25 -14.13204 33.84023 17156 ft 355 kts 325°
2026-05-08 07:26 -14.11186 33.82575 16644 ft 352 kts 325°
2026-05-08 07:26 -14.09182 33.81136 16155 ft 349 kts 325°
2026-05-08 07:26 -14.07191 33.79708 15663 ft 347 kts 326°
2026-05-08 07:26 -14.05240 33.78308 15177 ft 345 kts 326°
2026-05-08 07:27 -14.03278 33.76900 14678 ft 343 kts 326°
2026-05-08 07:27 -14.01328 33.75502 14183 ft 342 kts 326°
2026-05-08 07:27 -13.99378 33.74104 13642 ft 340 kts 326°
2026-05-08 07:27 -13.97438 33.72713 13127 ft 338 kts 325°
2026-05-08 07:28 -13.95513 33.71333 12626 ft 335 kts 325°
2026-05-08 07:28 -13.93600 33.69962 12128 ft 333 kts 325°
2026-05-08 07:28 -13.91701 33.68602 11621 ft 332 kts 325°
2026-05-08 07:28 -13.89806 33.67244 11077 ft 331 kts 325°
2026-05-08 07:29 -13.87931 33.65900 10567 ft 332 kts 324°
2026-05-08 07:29 -13.86053 33.64555 10368 ft 320 kts 324°
2026-05-08 07:29 -13.84275 33.63281 10225 ft 309 kts 324°
2026-05-08 07:29 -13.82540 33.62038 10091 ft 297 kts 324°
2026-05-08 07:30 -13.80847 33.60826 9555 ft 300 kts 325°
2026-05-08 07:30 -13.79136 33.59602 9141 ft 299 kts 325°
2026-05-08 07:30 -13.77439 33.58389 8758 ft 297 kts 326°
2026-05-08 07:30 -13.75690 33.57317 8352 ft 287 kts 342°
2026-05-08 07:31 -13.73767 33.57044 8021 ft 275 kts
2026-05-08 07:31 -13.72016 33.57527 7914 ft 255 kts 28°
2026-05-08 07:31 -13.70580 33.58495 7810 ft 234 kts 40°
2026-05-08 07:31 -13.69365 33.59526 7581 ft 221 kts 42°
2026-05-08 07:32 -13.68251 33.60494 7443 ft 203 kts 43°
2026-05-08 07:32 -13.67376 33.61547 7329 ft 189 kts 68°
2026-05-08 07:32 -13.67156 33.62836 7266 ft 184 kts 95°
2026-05-08 07:32 -13.67572 33.64123 7086 ft 199 kts 122°
2026-05-08 07:33 -13.68447 33.65244 6884 ft 202 kts 128°
2026-05-08 07:33 -13.69355 33.66351 6641 ft 201 kts 127°
2026-05-08 07:33 -13.70240 33.67430 6408 ft 194 kts 127°
2026-05-08 07:33 -13.71099 33.68485 6161 ft 192 kts 126°
2026-05-08 07:34 -13.71952 33.69535 5900 ft 190 kts 127°
2026-05-08 07:34 -13.72790 33.70560 5646 ft 188 kts 127°
2026-05-08 07:34 -13.73615 33.71572 5422 ft 181 kts 126°
2026-05-08 07:34 -13.74395 33.72531 5161 ft 169 kts 126°
2026-05-08 07:35 -13.75116 33.73418 4931 ft 154 kts 126°
2026-05-08 07:35 -13.75783 33.74240 4728 ft 146 kts 125°
2026-05-08 07:35 -13.76423 33.75029 4549 ft 143 kts 126°
2026-05-08 07:35 -13.77077 33.75834 4315 ft 147 kts 128°
2026-05-08 07:36 -13.77754 33.76646 4117 ft 149 kts 127°
2026-05-08 07:36 -13.78384 33.77425 4030 ft 135 kts 129°
2026-05-08 07:36 -13.78865 33.78012 4028 ft 77 kts 130°
2026-05-08 07:36 -13.79077 33.78274 4027 ft 21 kts 130°
2026-05-08 07:37 -13.79168 33.78385 4028 ft 19 kts 130°
2026-05-08 07:37 -13.79247 33.78481 4029 ft 16 kts 130°
2026-05-08 07:37 -13.79313 33.78562 4029 ft 14 kts 130°
2026-05-08 07:37 -13.79332 33.78636 4029 ft 10 kts 55°
2026-05-08 07:38 -13.79289 33.78677 4030 ft 7 kts 40°
2026-05-08 07:38 -13.79250 33.78710 4030 ft 7 kts 34°
2026-05-08 07:38 -13.79201 33.78714 4030 ft 8 kts 338°
2026-05-08 07:38 -13.79168 33.78672 4030 ft 8 kts 305°
2026-05-08 07:39 -13.79128 33.78623 4030 ft 13 kts 310°
2026-05-08 07:39 -13.79046 33.78523 4030 ft 24 kts 310°
2026-05-08 07:39 -13.78924 33.78374 4029 ft 29 kts 310°
2026-05-08 07:39 -13.78798 33.78220 4029 ft 27 kts 310°
2026-05-08 07:40 -13.78682 33.78078 4030 ft 25 kts 310°
2026-05-08 07:40 -13.78576 33.77946 4030 ft 23 kts 308°
2026-05-08 07:40 -13.78473 33.77816 4030 ft 24 kts 309°
2026-05-08 07:40 -13.78363 33.77679 4029 ft 26 kts 309°
2026-05-08 07:41 -13.78246 33.77647 4029 ft 19 kts 42°
2026-05-08 07:41 -13.78150 33.77730 4030 ft 17 kts 40°
2026-05-08 07:41 -13.78066 33.77800 4029 ft 14 kts 38°
2026-05-08 07:41 -13.78059 33.77839 4030 ft 5 kts 133°
2026-05-08 07:42 -13.78100 33.77888 4029 ft 2 kts 131°